Home   Weather   Post Falls   Past weeks

Flag for USA Past Weather in Post Falls, Idaho, USA — Yesterday and Last 2 Weeks

Now
56 °F

Overcast.


Feels Like: 55 °F
Forecast: 44 / 60 °F
Wind: 6 mph from South

Location: Coeur d'Alene Weather Reporting System

Current Time: Oct 1, 2016 at 5:11:26 AM

Latest Report: Oct 1, 2016 at 3:56 AM


Visibility: 10 mi

Pressure: 29.96 "Hg (27.68 "Hg at 664m altitude)

Humidity: 75%

Dew Point: 48 °F

Location of Post FallsLocation

Past Weather in Post Falls — Graph

°F

Post Falls Temperature Yesterday

Maximum temperature yesterday: 74 °F (at 2:56 PM)
Minimum temperature yesterday: 54 °F (at 5:56 AM)
Average temperature yesterday: 63 °F

High & Low Weather Summary for the Past Weeks

 TemperatureHumidityPressure
High81 °F (Sep 27, 3:56 PM)97% (Sep 30, 5:56 AM)30.10 "Hg (Sep 30, 5:56 AM)
Low46 °F (Sep 27, 5:56 AM)27% (Sep 27, 3:56 PM)29.86 "Hg (Sep 30, 8:56 PM)
Average63 °F63%30.01 "Hg
* Reported Sep 26 9:56 PM — Oct 1 3:56 AM, Post Falls, Weather by CustomWeather, © 2016

Note: Actual official high and low records may vary slightly from our data, if they occured in-between our weather recording intervals... More about our weather records

Advertising

Post Falls Weather History for the Previous 24 Hours

Scroll right to see more
 ConditionsComfort  
Time TempWeatherWind HumidityBarometerVisibility
3:56 AM
Sat, Oct 1
56 °FOvercast.6 mph75%29.96 "Hg10 mi
2:56 AM55 °FPartly cloudy.5 mph80%29.93 "Hg10 mi
1:56 AM56 °FPassing clouds.12 mph81%29.93 "Hg10 mi
12:56 AM55 °FClear.No wind90%29.91 "Hg10 mi
11:56 PM
Fri, Sep 30
58 °FPassing clouds.7 mph84%29.90 "Hg10 mi
10:56 PM58 °FClear.8 mph84%29.86 "Hg10 mi
9:56 PM62 °FLight rain. Mostly cloudy.5 mph73%29.89 "Hg10 mi
8:56 PM62 °FPassing clouds.6 mph67%29.86 "Hg10 mi
7:56 PM63 °FClear.6 mph63%29.87 "Hg10 mi
6:56 PM65 °FPassing clouds.7 mph66%29.90 "Hg10 mi
5:56 PM70 °FOvercast.6 mph57%29.93 "Hg10 mi
4:56 PM73 °FSunny.No wind46%29.91 "Hg10 mi
3:56 PM74 °FSunny.3 mph46%29.92 "Hg10 mi
2:56 PM74 °FSunny.6 mph46%29.93 "Hg10 mi
1:56 PM72 °FSunny.3 mph48%29.95 "Hg10 mi
12:56 PM70 °FSunny.No wind51%29.97 "Hg10 mi
11:56 AM66 °FSunny.7 mph65%30.00 "Hg10 mi
10:56 AM62 °FOvercast.5 mph78%30.01 "Hg10 mi
9:56 AM61 °FPartly sunny.3 mph81%30.01 "Hg10 mi
8:56 AM60 °FOvercast.6 mph80%30.02 "Hg10 mi
7:56 AM58 °FScattered clouds.3 mph87%30.02 "Hg10 mi
6:56 AM55 °FFog.9 mph93%30.02 "Hg5 mi
5:56 AM54 °FPassing clouds.5 mph97%30.01 "Hg9 mi
Weather by CustomWeather, © 2016

See weather overviewHow to use our weather pages